Location: Les Chemineaux
(47.3024°N, 1.5104°E)
Time: 18:56:49
(UTC+00:00)

ARIANE 5 R/B - Pass Details

Date: 19 May 2025
Orbit: 615 x 647 km, 98.0° (Epoch: 20 June)

Event Time Altitude Azimuth Distance (km) Brightness Sun altitude
Exits shadow 23:01:15 61° 205° (SSW) 707 2.5 -21.8°
Maximum altitude 23:01:51 71° 258° (WSW) 658 2.6 -21.8°
Drops below altitude 10° 23:06:12 10° 342° (NNW) 2,004 6.3 -22.0°
Sets 23:08:26 0° 345° (NNW) 2,920 7.5 -22.0°
